Miscellaneous Local Product
Issued by NWS Hastings, NE

Home | Current Version | Previous Version | Graphics & Text | Print | Product List | Glossary On
Versions: 1 2 3 4 5 6 7 8 9 10 11 12 13 14 15 16 17 18 19 20 21 22 23 24 25 26 27 28 29 30 31 32 33 34 35 36 37 38 39 40 41 42 43 44 45 46 47 48 49 50
000
AXUS43 KGID 240502
MISGRI

GID CWA HOURLY WEATHER ROUNDUP
NATIONAL WEATHER SERVICE HASTINGS NE
1200 AM CDT THU JUL 24 2014

NOTE: "FAIR" INDICATES FEW OR NO CLOUDS BELOW 12,000 FEET WITH NO
SIGNIFICANT WEATHER AND/OR OBSTRUCTIONS TO VISIBILITY.

...SOUTH CENTRAL NEBRASKA...

CITY           SKY/WX    TMP DP  RH WIND       PRES   REMARKS
GRAND ISLAND   CLEAR     67  61  81 SE5       30.17F
HASTINGS       CLEAR     72  58  61 SE7       30.17S
KEARNEY        PTCLDY    66  61  82 SE6       30.17S
ORD            CLEAR     65  61  87 E5        30.15F
YORK           PTCLDY    66  63  88 E6        30.18S
AURORA         CLEAR     65  64  93 E6        30.18S
LEXINGTON      CLEAR     68  62  79 SE9       30.17S
HOLDREGE       CLEAR     67  61  81 SE8       30.16F
HEBRON         CLEAR     66  60  81 CALM      30.16F

...NEBRASKA PANHANDLE...

CITY           SKY/WX    TMP DP  RH WIND       PRES   REMARKS
CHADRON        CLEAR     78  65  63 S24G30    30.00F
ALLIANCE       CLEAR     72  64  76 SE24      30.10F
SCOTTSBLUFF    CLEAR     74  65  73 E10       30.08F
SIDNEY         CLEAR     73  62  68 SE9       30.17F

...WESTERN AND NORTH CENTRAL NEBRASKA...

CITY           SKY/WX    TMP DP  RH WIND       PRES   REMARKS
VALENTINE      PTCLDY    72  58  61 SE14      30.12S
AINSWORTH      PTCLDY    67  58  72 SE12      30.15S
ONEILL         CLEAR     68  58  70 SE10      30.17S
BROKEN BOW     PTCLDY    67  62  84 SE8       30.16F
IMPERIAL       CLEAR     69  64  84 SE14      30.16F
NORTH PLATTE   CLEAR     66  62  87 E8        30.15F
MCCOOK         CLEAR     70  63  78 E9        30.15F

...EASTERN NEBRASKA...

CITY           SKY/WX    TMP DP  RH WIND       PRES   REMARKS
NORFOLK        CLEAR     66  60  81 SE7       30.17F
SO SIOUX CITY  CLEAR     65  62  90 CALM      30.16S
TEKAMAH        CLEAR     66  60  81 CALM      30.16S
COLUMBUS       CLEAR     64  57  77 E5        30.17F
ALBION         CLEAR     64  59  84 CALM      30.18S
OMAHA EPPLEY   CLEAR     74  62  66 SE6       30.17S
OFFUTT AFB     CLEAR     67  64  93 CALM      30.16S
MILLARD        CLEAR     73  63  71 SE3       30.16S
LINCOLN        CLEAR     72  60  66 CALM      30.17F
NEBRASKA CITY  CLEAR     69  63  80 E5        30.17R
BEATRICE       CLEAR     68  62  81 CALM      30.17R
FALLS CITY     CLEAR     68  64  87 E3        30.15R

...NORTHERN KANSAS...

CITY           SKY/WX    TMP DP  RH WIND       PRES   REMARKS
GOODLAND       MOCLDY    73  64  73 SE9       30.20S
HILL CITY      CLEAR     69  64  84 E3        30.16F
HAYS           CLEAR     72  59  64 E10       30.16S
RUSSELL        CLEAR     73  62  68 E9        30.15R
CONCORDIA      CLEAR     70  62  76 E7        30.15F
SALINA         CLEAR     78  62  57 E7        30.14S
TOPEKA         CLEAR     72  66  81 CALM      30.14S



USA.gov is the U.S. government's official web portal to all federal, state and local government web resources and services.